Weather History for Paynesville, MN

Change the Weather History Date:

Sunday, May 18, 2014

  Actual Average (KLJF) Record (KLJF)
Temperature  
Mean Temperature 54 °F -  
Max Temperature 69 °F 74 °F 93 °F (1998)
Min Temperature 40 °F 48 °F 33 °F (1968)
Degree Days  
Heating Degree Days 10    
Growing Degree Days 4 (Base 50)    
Moisture  
Dew Point 35 °F    
Average Humidity 47    
Maximum Humidity 79    
Minimum Humidity 29    
Precipitation  
Precipitation 0.00 in - - ()
Sea Level Pressure  
Sea Level Pressure 30.00 in    
Wind  
Wind Speed 4 mph (SW)    
Max Wind Speed 16 mph    
Max Gust Speed 23 mph    
Visibility 10 miles    
Events      
Averages and records for this station are not official NWS values.
T = Trace of Precipitation, MM = Missing Value Source: NWS Daily Summary

Daily Weather History Graph

Daily Weather History Graph

Search for Another Location

Airport:

Trip Planner

Search our weather history database for the weather conditions in past years. The results will help you decide how hot, cold, wet, or windy it might be!

Date:

Astronomy

May. 18, 2014 Rise Set
Actual Time 5:45 AM CDT 8:46 PM CDT
Civil Twilight 5:10 AM CDT 9:21 PM CDT
Nautical Twilight 4:25 AM CDT 10:06 PM CDT
Astronomical Twilight 3:32 AM CDT 11:00 PM CDT
Moon No Moon Rise 9:37 AM CDT (5/18)
Length of Visible Light 16h 10m
Length of Day
15h 00m
Waning Gibbous, 81% of the Moon is Illuminated
May 18
Waning Gibbous
May 21
Last Quarter
May 28
New
Jun 5
First Quarter
Jun 12
Full

Hourly Weather History & Observations

Time (CDT) Temp. Dew Point Humidity Pressure Visibility Wind Dir Wind Speed Gust Speed Precip Events Conditions
12:12 AM 42.6 °F 36.5 °F 79% 30.01 in 10.0 mi Calm Calm - N/A   Clear
12:32 AM 43.3 °F 34.3 °F 71% 30.01 in 10.0 mi Calm Calm - N/A   Clear
12:52 AM 44.2 °F 32.0 °F 62% 30.02 in 10.0 mi Calm Calm - N/A   Clear
1:12 AM 44.8 °F 32.7 °F 63% 30.02 in 10.0 mi Calm Calm - N/A   Clear
1:33 AM 44.8 °F 32.9 °F 63% 30.02 in 10.0 mi Calm Calm - N/A   Clear
1:52 AM 45.1 °F 32.5 °F 61% 30.02 in 10.0 mi Calm Calm - N/A   Clear
2:12 AM 44.6 °F 32.9 °F 64% 30.02 in 10.0 mi Calm Calm - N/A   Clear
2:32 AM 44.1 °F 32.9 °F 65% 30.02 in 10.0 mi Calm Calm - N/A   Clear
2:52 AM 41.2 °F 32.7 °F 72% 30.02 in 10.0 mi Calm Calm - N/A   Clear
3:12 AM 42.4 °F 33.1 °F 69% 30.03 in 10.0 mi Calm Calm - N/A   Clear
3:32 AM 41.0 °F 33.1 °F 73% 30.03 in 10.0 mi Calm Calm - N/A   Clear
3:52 AM 40.6 °F 32.5 °F 73% 30.03 in 10.0 mi Calm Calm - N/A   Clear
4:12 AM 40.5 °F 32.4 °F 73% 30.03 in 10.0 mi Calm Calm - N/A   Clear
4:32 AM 41.9 °F 32.0 °F 68% 30.03 in 10.0 mi Calm Calm - N/A   Clear
4:52 AM 40.3 °F 32.0 °F 72% 30.04 in 10.0 mi Calm Calm - N/A   Clear
5:12 AM 40.1 °F 32.0 °F 73% 30.04 in 10.0 mi Calm Calm - N/A   Clear
5:32 AM 42.1 °F 31.5 °F 66% 30.04 in 10.0 mi Calm Calm - N/A   Clear
5:52 AM 42.1 °F 31.6 °F 67% 30.04 in 10.0 mi Calm Calm - N/A   Clear
6:12 AM 43.0 °F 31.1 °F 63% 30.04 in 10.0 mi Calm Calm - N/A   Clear
6:32 AM 43.5 °F 31.1 °F 62% 30.05 in 10.0 mi Calm Calm - N/A   Clear
6:51 AM 44.1 °F 33.3 °F 66% 30.05 in 10.0 mi Calm Calm - N/A   Clear
7:12 AM 46.8 °F 36.0 °F 66% 30.05 in 10.0 mi Calm Calm - N/A   Clear
7:32 AM 49.5 °F 37.0 °F 62% 30.05 in 10.0 mi Calm Calm - N/A   Clear
7:52 AM 50.7 °F 37.0 °F 59% 30.05 in 10.0 mi Calm Calm - N/A   Clear
8:12 AM 52.0 °F 37.6 °F 58% 30.05 in 10.0 mi Calm Calm - N/A   Clear
8:32 AM 53.6 °F 38.1 °F 56% 30.05 in 10.0 mi SW 5.8 mph - N/A   Clear
8:52 AM 55.0 °F 39.2 °F 55% 30.05 in 10.0 mi SW 8.1 mph - N/A   Clear
9:12 AM 56.3 °F 40.1 °F 55% 30.06 in 10.0 mi SW 8.1 mph - N/A   Clear
9:32 AM 57.4 °F 40.3 °F 53% 30.05 in 10.0 mi SW 10.4 mph - N/A   Clear
9:52 AM 59.0 °F 40.8 °F 51% 30.05 in 10.0 mi SW 10.4 mph - N/A   Clear
10:12 AM 61.3 °F 41.7 °F 49% 30.05 in 10.0 mi SW 11.5 mph 17.3 mph N/A   Clear
10:32 AM 61.9 °F 39.9 °F 44% 30.04 in 10.0 mi SW 9.2 mph - N/A   Clear
10:52 AM 64.0 °F 37.0 °F 37% 30.04 in 10.0 mi SW 9.2 mph - N/A   Clear
11:12 AM 64.4 °F 33.1 °F 31% 30.04 in 10.0 mi SW 13.8 mph 20.7 mph N/A   Clear
11:32 AM 64.8 °F 32.2 °F 30% 30.04 in 10.0 mi SW 12.7 mph 23.0 mph N/A   Clear
11:52 AM 65.5 °F 32.5 °F 29% 30.03 in 10.0 mi SW 16.1 mph 23.0 mph N/A   Clear
12:12 PM 65.7 °F 32.4 °F 29% 30.02 in 10.0 mi SW 15.0 mph 20.7 mph N/A   Clear
12:32 PM 66.0 °F 33.3 °F 30% 30.02 in 10.0 mi SW 9.2 mph 19.6 mph N/A   Clear
12:52 PM 66.6 °F 34.0 °F 30% 30.01 in 10.0 mi SW 15.0 mph 21.9 mph N/A   Scattered Clouds
1:12 PM 67.3 °F 36.1 °F 32% 30.00 in 10.0 mi SW 13.8 mph 20.7 mph N/A   Scattered Clouds
1:32 PM 66.4 °F 36.7 °F 33% 30.00 in 10.0 mi SW 15.0 mph - N/A   Scattered Clouds
1:52 PM 66.0 °F 36.1 °F 33% 30.00 in 10.0 mi SW 15.0 mph 23.0 mph N/A   Mostly Cloudy
2:12 PM 65.3 °F 35.6 °F 33% 30.00 in 10.0 mi SW 10.4 mph - N/A   Overcast
2:32 PM 65.5 °F 37.4 °F 35% 29.99 in 10.0 mi SW 6.9 mph - N/A   Mostly Cloudy
2:52 PM 65.5 °F 36.7 °F 35% 29.99 in 10.0 mi SW 12.7 mph 16.1 mph N/A   Mostly Cloudy
3:12 PM 66.4 °F 37.2 °F 34% 29.98 in 10.0 mi SW 11.5 mph 19.6 mph N/A   Mostly Cloudy
3:32 PM 66.9 °F 37.4 °F 34% 29.97 in 10.0 mi SW 13.8 mph 19.6 mph N/A   Mostly Cloudy
3:52 PM 67.6 °F 37.2 °F 33% 29.96 in 10.0 mi SW 12.7 mph 20.7 mph N/A   Mostly Cloudy
4:12 PM 68.9 °F 37.2 °F 31% 29.96 in 10.0 mi SW 12.7 mph 20.7 mph N/A   Scattered Clouds
4:31 PM 69.1 °F 36.9 °F 31% 29.95 in 10.0 mi SW 15.0 mph 20.7 mph N/A   Scattered Clouds
4:52 PM 69.3 °F 36.3 °F 30% 29.95 in 10.0 mi SW 15.0 mph 21.9 mph N/A   Scattered Clouds
5:12 PM 69.1 °F 36.1 °F 30% 29.94 in 10.0 mi SW 9.2 mph 18.4 mph N/A   Scattered Clouds
5:32 PM 69.4 °F 36.3 °F 30% 29.94 in 10.0 mi SW 13.8 mph 18.4 mph N/A   Scattered Clouds
5:52 PM 68.7 °F 35.6 °F 30% 29.94 in 10.0 mi SW 10.4 mph 19.6 mph N/A   Scattered Clouds
6:12 PM 68.5 °F 36.0 °F 30% 29.94 in 10.0 mi SW 5.8 mph 10.4 mph N/A   Scattered Clouds
6:32 PM 68.0 °F 35.2 °F 30% 29.93 in 10.0 mi SW 11.5 mph 20.7 mph N/A   Clear
6:52 PM 67.1 °F 35.4 °F 31% 29.93 in 10.0 mi Calm Calm - N/A   Clear
7:12 PM 66.2 °F 35.4 °F 32% 29.93 in 10.0 mi SW 10.4 mph - N/A   Clear
7:32 PM 66.2 °F 34.5 °F 31% 29.92 in 10.0 mi SW 8.1 mph - N/A   Clear
7:52 PM 65.7 °F 34.3 °F 31% 29.92 in 10.0 mi SW 9.2 mph - N/A   Clear
8:12 PM 64.8 °F 33.6 °F 31% 29.92 in 10.0 mi SW 8.1 mph - N/A   Clear
8:32 PM 64.2 °F 33.8 °F 32% 29.93 in 10.0 mi Calm Calm - N/A   Clear
8:52 PM 63.3 °F 34.3 °F 34% 29.93 in 10.0 mi SW 6.9 mph - N/A   Clear
9:12 PM 62.6 °F 34.5 °F 35% 29.93 in 10.0 mi SW 5.8 mph - N/A   Clear
9:32 PM 61.7 °F 35.2 °F 37% 29.93 in 10.0 mi Calm Calm - N/A   Clear
9:52 PM 61.5 °F 34.9 °F 37% 29.94 in 10.0 mi Calm Calm - N/A   Clear
10:12 PM 61.7 °F 34.7 °F 36% 29.95 in 10.0 mi Calm Calm - N/A   Scattered Clouds
10:32 PM 61.2 °F 34.3 °F 37% 29.95 in 10.0 mi SW 8.1 mph - N/A   Scattered Clouds
10:52 PM 60.6 °F 34.2 °F 37% 29.95 in 10.0 mi SW 10.4 mph - N/A   Scattered Clouds
11:12 PM 59.9 °F 34.9 °F 39% 29.95 in 10.0 mi SW 8.1 mph - N/A   Mostly Cloudy
11:32 PM 59.2 °F 36.1 °F 42% 29.95 in 10.0 mi SW 8.1 mph - N/A   Overcast
11:52 PM 58.1 °F 36.9 °F 45% 29.95 in 10.0 mi SW 6.9 mph - N/A   Mostly Cloudy